Data supplied by UK-AIR on 5/4/2008
All Data GMT hour ending 
Status: R =Ratified P=Provisional,P*=As supplied
,,Walsall Alumwell,,,,,,,,,,,,,,,,,,,,,,,
Date,time,"Nitric oxide",status,unit,"Nitrogen dioxide",status,unit,"Nitrogen oxides as nitrogen dioxide",status,unit
 
01-01-1997,01:00,,,,,,,,,
01-01-1997,02:00,18,R,ugm-3,19,R,ugm-3,46,R,ugm-3
01-01-1997,03:00,16,R,ugm-3,17,R,ugm-3,42,R,ugm-3
01-01-1997,04:00,18,R,ugm-3,17,R,ugm-3,44,R,ugm-3
01-01-1997,05:00,16,R,ugm-3,21,R,ugm-3,46,R,ugm-3
01-01-1997,06:00,16,R,ugm-3,23,R,ugm-3,48,R,ugm-3
01-01-1997,07:00,14,R,ugm-3,23,R,ugm-3,44,R,ugm-3
01-01-1997,08:00,18,R,ugm-3,15,R,ugm-3,42,R,ugm-3
01-01-1997,09:00,18,R,ugm-3,8,R,ugm-3,34,R,ugm-3
01-01-1997,10:00,15,R,ugm-3,10,R,ugm-3,32,R,ugm-3
01-01-1997,11:00,16,R,ugm-3,10,R,ugm-3,34,R,ugm-3
01-01-1997,12:00,19,R,ugm-3,13,R,ugm-3,42,R,ugm-3
01-01-1997,13:00,20,R,ugm-3,15,R,ugm-3,46,R,ugm-3
01-01-1997,14:00,23,R,ugm-3,34,R,ugm-3,69,R,ugm-3
01-01-1997,15:00,21,R,ugm-3,40,R,ugm-3,73,R,ugm-3
01-01-1997,16:00,18,R,ugm-3,29,R,ugm-3,55,R,ugm-3
01-01-1997,17:00,18,R,ugm-3,40,R,ugm-3,67,R,ugm-3
01-01-1997,18:00,19,R,ugm-3,34,R,ugm-3,63,R,ugm-3
01-01-1997,19:00,19,R,ugm-3,38,R,ugm-3,67,R,ugm-3
01-01-1997,20:00,15,R,ugm-3,42,R,ugm-3,65,R,ugm-3
01-01-1997,21:00,20,R,ugm-3,50,R,ugm-3,80,R,ugm-3
01-01-1997,22:00,110,R,ugm-3,67,R,ugm-3,235,R,ugm-3
01-01-1997,23:00,211,R,ugm-3,71,R,ugm-3,393,R,ugm-3
01-01-1997,24:00,244,R,ugm-3,67,R,ugm-3,439,R,ugm-3
02-01-1997,01:00,316,R,ugm-3,74,R,ugm-3,558,R,ugm-3
02-01-1997,02:00,93,R,ugm-3,65,R,ugm-3,206,R,ugm-3
02-01-1997,03:00,75,R,ugm-3,61,R,ugm-3,176,R,ugm-3
02-01-1997,04:00,113,R,ugm-3,61,R,ugm-3,233,R,ugm-3
02-01-1997,05:00,95,R,ugm-3,61,R,ugm-3,206,R,ugm-3
02-01-1997,06:00,103,R,ugm-3,52,R,ugm-3,208,R,ugm-3
02-01-1997,07:00,118,R,ugm-3,57,R,ugm-3,237,R,ugm-3
02-01-1997,08:00,141,R,ugm-3,59,R,ugm-3,275,R,ugm-3
02-01-1997,09:00,243,R,ugm-3,69,R,ugm-3,439,R,ugm-3
02-01-1997,10:00,180,R,ugm-3,73,R,ugm-3,348,R,ugm-3
02-01-1997,11:00,150,R,ugm-3,73,R,ugm-3,302,R,ugm-3
02-01-1997,12:00,153,R,ugm-3,78,R,ugm-3,311,R,ugm-3
02-01-1997,13:00,139,R,ugm-3,78,R,ugm-3,290,R,ugm-3
02-01-1997,14:00,194,R,ugm-3,76,R,ugm-3,372,R,ugm-3
02-01-1997,15:00,158,R,ugm-3,78,R,ugm-3,319,R,ugm-3
02-01-1997,16:00,233,R,ugm-3,86,R,ugm-3,441,R,ugm-3
02-01-1997,17:00,270,R,ugm-3,92,R,ugm-3,504,R,ugm-3
02-01-1997,18:00,255,R,ugm-3,94,R,ugm-3,483,R,ugm-3
02-01-1997,19:00,196,R,ugm-3,90,R,ugm-3,390,R,ugm-3
02-01-1997,20:00,200,R,ugm-3,86,R,ugm-3,392,R,ugm-3
02-01-1997,21:00,133,R,ugm-3,86,R,ugm-3,288,R,ugm-3
02-01-1997,22:00,84,R,ugm-3,80,R,ugm-3,208,R,ugm-3
02-01-1997,23:00,56,R,ugm-3,78,R,ugm-3,164,R,ugm-3
02-01-1997,24:00,29,R,ugm-3,52,R,ugm-3,96,R,ugm-3
03-01-1997,01:00,21,R,ugm-3,40,R,ugm-3,73,R,ugm-3
03-01-1997,02:00,19,R,ugm-3,38,R,ugm-3,67,R,ugm-3
03-01-1997,03:00,19,R,ugm-3,46,R,ugm-3,74,R,ugm-3
03-01-1997,04:00,19,R,ugm-3,42,R,ugm-3,71,R,ugm-3
03-01-1997,05:00,24,R,ugm-3,40,R,ugm-3,76,R,ugm-3
03-01-1997,06:00,10,R,ugm-3,44,R,ugm-3,59,R,ugm-3
03-01-1997,07:00,19,R,ugm-3,44,R,ugm-3,73,R,ugm-3
03-01-1997,08:00,19,R,ugm-3,52,R,ugm-3,80,R,ugm-3
03-01-1997,09:00,23,R,ugm-3,61,R,ugm-3,96,R,ugm-3
03-01-1997,10:00,31,R,ugm-3,59,R,ugm-3,107,R,ugm-3
03-01-1997,11:00,40,R,ugm-3,52,R,ugm-3,113,R,ugm-3
03-01-1997,12:00,35,R,ugm-3,50,R,ugm-3,103,R,ugm-3
03-01-1997,13:00,28,R,ugm-3,50,R,ugm-3,92,R,ugm-3
03-01-1997,14:00,24,R,ugm-3,48,R,ugm-3,84,R,ugm-3
03-01-1997,15:00,14,R,ugm-3,55,R,ugm-3,76,R,ugm-3
03-01-1997,16:00,16,R,ugm-3,57,R,ugm-3,82,R,ugm-3
03-01-1997,17:00,11,R,ugm-3,57,R,ugm-3,74,R,ugm-3
03-01-1997,18:00,13,R,ugm-3,52,R,ugm-3,71,R,ugm-3
03-01-1997,19:00,11,R,ugm-3,40,R,ugm-3,57,R,ugm-3
03-01-1997,20:00,8,R,ugm-3,32,R,ugm-3,44,R,ugm-3
03-01-1997,21:00,8,R,ugm-3,25,R,ugm-3,36,R,ugm-3
03-01-1997,22:00,10,R,ugm-3,27,R,ugm-3,42,R,ugm-3
03-01-1997,23:00,8,R,ugm-3,23,R,ugm-3,34,R,ugm-3
03-01-1997,24:00,10,R,ugm-3,23,R,ugm-3,38,R,ugm-3
04-01-1997,01:00,13,R,ugm-3,15,R,ugm-3,34,R,ugm-3
04-01-1997,02:00,14,R,ugm-3,13,R,ugm-3,34,R,ugm-3
04-01-1997,03:00,15,R,ugm-3,17,R,ugm-3,40,R,ugm-3
04-01-1997,04:00,10,R,ugm-3,17,R,ugm-3,32,R,ugm-3
04-01-1997,05:00,11,R,ugm-3,17,R,ugm-3,34,R,ugm-3
04-01-1997,06:00,10,R,ugm-3,17,R,ugm-3,32,R,ugm-3
04-01-1997,07:00,10,R,ugm-3,23,R,ugm-3,38,R,ugm-3
04-01-1997,08:00,13,R,ugm-3,21,R,ugm-3,40,R,ugm-3
04-01-1997,09:00,13,R,ugm-3,25,R,ugm-3,44,R,ugm-3
04-01-1997,10:00,6,R,ugm-3,27,R,ugm-3,36,R,ugm-3
04-01-1997,11:00,11,R,ugm-3,25,R,ugm-3,42,R,ugm-3
04-01-1997,12:00,13,R,ugm-3,25,R,ugm-3,44,R,ugm-3
04-01-1997,13:00,15,R,ugm-3,27,R,ugm-3,50,R,ugm-3
04-01-1997,14:00,11,R,ugm-3,29,R,ugm-3,46,R,ugm-3
04-01-1997,15:00,9,R,ugm-3,32,R,ugm-3,46,R,ugm-3
04-01-1997,16:00,9,R,ugm-3,32,R,ugm-3,46,R,ugm-3
04-01-1997,17:00,9,R,ugm-3,34,R,ugm-3,48,R,ugm-3
04-01-1997,18:00,11,R,ugm-3,32,R,ugm-3,50,R,ugm-3
04-01-1997,19:00,9,R,ugm-3,34,R,ugm-3,48,R,ugm-3
04-01-1997,20:00,11,R,ugm-3,31,R,ugm-3,48,R,ugm-3
04-01-1997,21:00,15,R,ugm-3,23,R,ugm-3,46,R,ugm-3
04-01-1997,22:00,14,R,ugm-3,21,R,ugm-3,42,R,ugm-3
04-01-1997,23:00,10,R,ugm-3,21,R,ugm-3,36,R,ugm-3
04-01-1997,24:00,14,R,ugm-3,19,R,ugm-3,40,R,ugm-3
05-01-1997,01:00,13,R,ugm-3,15,R,ugm-3,34,R,ugm-3
05-01-1997,02:00,15,R,ugm-3,15,R,ugm-3,38,R,ugm-3
05-01-1997,03:00,14,R,ugm-3,15,R,ugm-3,36,R,ugm-3
05-01-1997,04:00,16,R,ugm-3,10,R,ugm-3,34,R,ugm-3
05-01-1997,05:00,20,R,ugm-3,6,R,ugm-3,36,R,ugm-3
05-01-1997,06:00,20,R,ugm-3,2,R,ugm-3,32,R,ugm-3
05-01-1997,07:00,20,R,ugm-3,13,R,ugm-3,44,R,ugm-3
05-01-1997,08:00,16,R,ugm-3,17,R,ugm-3,42,R,ugm-3
05-01-1997,09:00,19,R,ugm-3,19,R,ugm-3,48,R,ugm-3
05-01-1997,10:00,21,R,ugm-3,21,R,ugm-3,53,R,ugm-3
05-01-1997,11:00,21,R,ugm-3,23,R,ugm-3,55,R,ugm-3
05-01-1997,12:00,21,R,ugm-3,25,R,ugm-3,57,R,ugm-3
05-01-1997,13:00,21,R,ugm-3,21,R,ugm-3,53,R,ugm-3
05-01-1997,14:00,21,R,ugm-3,19,R,ugm-3,52,R,ugm-3
05-01-1997,15:00,25,R,ugm-3,27,R,ugm-3,65,R,ugm-3
05-01-1997,16:00,21,R,ugm-3,34,R,ugm-3,67,R,ugm-3
05-01-1997,17:00,21,R,ugm-3,52,R,ugm-3,84,R,ugm-3
05-01-1997,18:00,21,R,ugm-3,50,R,ugm-3,82,R,ugm-3
05-01-1997,19:00,23,R,ugm-3,48,R,ugm-3,82,R,ugm-3
05-01-1997,20:00,21,R,ugm-3,48,R,ugm-3,80,R,ugm-3
05-01-1997,21:00,21,R,ugm-3,42,R,ugm-3,74,R,ugm-3
05-01-1997,22:00,20,R,ugm-3,40,R,ugm-3,71,R,ugm-3
05-01-1997,23:00,20,R,ugm-3,42,R,ugm-3,73,R,ugm-3
05-01-1997,24:00,21,R,ugm-3,46,R,ugm-3,78,R,ugm-3
06-01-1997,01:00,18,R,ugm-3,46,R,ugm-3,73,R,ugm-3
06-01-1997,02:00,21,R,ugm-3,52,R,ugm-3,84,R,ugm-3
06-01-1997,03:00,16,R,ugm-3,48,R,ugm-3,73,R,ugm-3
06-01-1997,04:00,23,R,ugm-3,48,R,ugm-3,82,R,ugm-3
06-01-1997,05:00,26,R,ugm-3,55,R,ugm-3,96,R,ugm-3
06-01-1997,06:00,25,R,ugm-3,57,R,ugm-3,96,R,ugm-3
06-01-1997,07:00,34,R,ugm-3,61,R,ugm-3,113,R,ugm-3
06-01-1997,08:00,,,,,,,,,
06-01-1997,09:00,95,R,ugm-3,63,R,ugm-3,208,R,ugm-3
06-01-1997,10:00,83,R,ugm-3,61,R,ugm-3,187,R,ugm-3
06-01-1997,11:00,73,R,ugm-3,52,R,ugm-3,162,R,ugm-3
06-01-1997,12:00,70,R,ugm-3,55,R,ugm-3,162,R,ugm-3
06-01-1997,13:00,55,R,ugm-3,53,R,ugm-3,138,R,ugm-3
06-01-1997,14:00,51,R,ugm-3,57,R,ugm-3,136,R,ugm-3
06-01-1997,15:00,56,R,ugm-3,55,R,ugm-3,141,R,ugm-3
06-01-1997,16:00,59,R,ugm-3,63,R,ugm-3,153,R,ugm-3
06-01-1997,17:00,50,R,ugm-3,65,R,ugm-3,141,R,ugm-3
06-01-1997,18:00,31,R,ugm-3,57,R,ugm-3,105,R,ugm-3
06-01-1997,19:00,34,R,ugm-3,57,R,ugm-3,109,R,ugm-3
06-01-1997,20:00,30,R,ugm-3,57,R,ugm-3,103,R,ugm-3
06-01-1997,21:00,16,R,ugm-3,29,R,ugm-3,53,R,ugm-3
06-01-1997,22:00,14,R,ugm-3,21,R,ugm-3,42,R,ugm-3
06-01-1997,23:00,11,R,ugm-3,19,R,ugm-3,36,R,ugm-3
06-01-1997,24:00,20,R,ugm-3,11,R,ugm-3,42,R,ugm-3
07-01-1997,01:00,19,R,ugm-3,4,R,ugm-3,32,R,ugm-3
07-01-1997,02:00,13,R,ugm-3,11,R,ugm-3,31,R,ugm-3
07-01-1997,03:00,16,R,ugm-3,6,R,ugm-3,31,R,ugm-3
07-01-1997,04:00,19,R,ugm-3,8,R,ugm-3,36,R,ugm-3
07-01-1997,05:00,16,R,ugm-3,10,R,ugm-3,34,R,ugm-3
07-01-1997,06:00,16,R,ugm-3,10,R,ugm-3,34,R,ugm-3
07-01-1997,07:00,21,R,ugm-3,11,R,ugm-3,44,R,ugm-3
07-01-1997,08:00,19,R,ugm-3,23,R,ugm-3,52,R,ugm-3
07-01-1997,09:00,20,R,ugm-3,36,R,ugm-3,67,R,ugm-3
07-01-1997,10:00,21,R,ugm-3,38,R,ugm-3,71,R,ugm-3
07-01-1997,11:00,11,R,ugm-3,38,R,ugm-3,55,R,ugm-3
07-01-1997,12:00,26,R,ugm-3,44,R,ugm-3,84,R,ugm-3
07-01-1997,13:00,35,R,ugm-3,46,R,ugm-3,99,R,ugm-3
07-01-1997,14:00,25,R,ugm-3,44,R,ugm-3,82,R,ugm-3
07-01-1997,15:00,34,R,ugm-3,48,R,ugm-3,99,R,ugm-3
07-01-1997,16:00,40,R,ugm-3,57,R,ugm-3,118,R,ugm-3
07-01-1997,17:00,34,R,ugm-3,55,R,ugm-3,107,R,ugm-3
07-01-1997,18:00,23,R,ugm-3,50,R,ugm-3,84,R,ugm-3
07-01-1997,19:00,16,R,ugm-3,46,R,ugm-3,71,R,ugm-3
07-01-1997,20:00,18,R,ugm-3,48,R,ugm-3,74,R,ugm-3
07-01-1997,21:00,11,R,ugm-3,44,R,ugm-3,61,R,ugm-3
07-01-1997,22:00,23,R,ugm-3,48,R,ugm-3,82,R,ugm-3
07-01-1997,23:00,24,R,ugm-3,46,R,ugm-3,82,R,ugm-3
07-01-1997,24:00,20,R,ugm-3,34,R,ugm-3,65,R,ugm-3
08-01-1997,01:00,5,R,ugm-3,23,R,ugm-3,31,R,ugm-3
08-01-1997,02:00,6,R,ugm-3,17,R,ugm-3,27,R,ugm-3
08-01-1997,03:00,4,R,ugm-3,17,R,ugm-3,23,R,ugm-3
08-01-1997,04:00,6,R,ugm-3,13,R,ugm-3,23,R,ugm-3
08-01-1997,05:00,14,R,ugm-3,13,R,ugm-3,34,R,ugm-3
08-01-1997,06:00,14,R,ugm-3,17,R,ugm-3,38,R,ugm-3
08-01-1997,07:00,14,R,ugm-3,19,R,ugm-3,40,R,ugm-3
08-01-1997,08:00,14,R,ugm-3,36,R,ugm-3,57,R,ugm-3
08-01-1997,09:00,23,R,ugm-3,42,R,ugm-3,76,R,ugm-3
08-01-1997,10:00,25,R,ugm-3,50,R,ugm-3,88,R,ugm-3
08-01-1997,11:00,40,R,ugm-3,53,R,ugm-3,115,R,ugm-3
08-01-1997,12:00,36,R,ugm-3,50,R,ugm-3,105,R,ugm-3
08-01-1997,13:00,16,R,ugm-3,42,R,ugm-3,67,R,ugm-3
08-01-1997,14:00,18,R,ugm-3,36,R,ugm-3,63,R,ugm-3
08-01-1997,15:00,,,,,,,,,
08-01-1997,16:00,,,,,,,,,
08-01-1997,17:00,20,R,ugm-3,55,R,ugm-3,86,R,ugm-3
08-01-1997,18:00,19,R,ugm-3,55,R,ugm-3,84,R,ugm-3
08-01-1997,19:00,14,R,ugm-3,46,R,ugm-3,67,R,ugm-3
08-01-1997,20:00,24,R,ugm-3,36,R,ugm-3,73,R,ugm-3
08-01-1997,21:00,19,R,ugm-3,32,R,ugm-3,61,R,ugm-3
08-01-1997,22:00,14,R,ugm-3,23,R,ugm-3,44,R,ugm-3
08-01-1997,23:00,16,R,ugm-3,15,R,ugm-3,40,R,ugm-3
08-01-1997,24:00,14,R,ugm-3,15,R,ugm-3,36,R,ugm-3
09-01-1997,01:00,14,R,ugm-3,11,R,ugm-3,32,R,ugm-3
09-01-1997,02:00,13,R,ugm-3,4,R,ugm-3,23,R,ugm-3
09-01-1997,03:00,14,R,ugm-3,8,R,ugm-3,29,R,ugm-3
09-01-1997,04:00,11,R,ugm-3,10,R,ugm-3,27,R,ugm-3
09-01-1997,05:00,15,R,ugm-3,11,R,ugm-3,34,R,ugm-3
09-01-1997,06:00,19,R,ugm-3,8,R,ugm-3,36,R,ugm-3
09-01-1997,07:00,13,R,ugm-3,17,R,ugm-3,36,R,ugm-3
09-01-1997,08:00,14,R,ugm-3,29,R,ugm-3,50,R,ugm-3
09-01-1997,09:00,18,R,ugm-3,40,R,ugm-3,67,R,ugm-3
09-01-1997,10:00,16,R,ugm-3,42,R,ugm-3,67,R,ugm-3
09-01-1997,11:00,13,R,ugm-3,38,R,ugm-3,57,R,ugm-3
09-01-1997,12:00,15,R,ugm-3,44,R,ugm-3,67,R,ugm-3
09-01-1997,13:00,20,R,ugm-3,48,R,ugm-3,78,R,ugm-3
09-01-1997,14:00,20,R,ugm-3,44,R,ugm-3,74,R,ugm-3
09-01-1997,15:00,20,R,ugm-3,42,R,ugm-3,73,R,ugm-3
09-01-1997,16:00,18,R,ugm-3,48,R,ugm-3,74,R,ugm-3
09-01-1997,17:00,14,R,ugm-3,46,R,ugm-3,67,R,ugm-3
09-01-1997,18:00,21,R,ugm-3,38,R,ugm-3,71,R,ugm-3
09-01-1997,19:00,18,R,ugm-3,36,R,ugm-3,63,R,ugm-3
09-01-1997,20:00,24,R,ugm-3,42,R,ugm-3,78,R,ugm-3
09-01-1997,21:00,24,R,ugm-3,38,R,ugm-3,74,R,ugm-3
09-01-1997,22:00,20,R,ugm-3,29,R,ugm-3,59,R,ugm-3
09-01-1997,23:00,20,R,ugm-3,27,R,ugm-3,57,R,ugm-3
09-01-1997,24:00,19,R,ugm-3,32,R,ugm-3,61,R,ugm-3
10-01-1997,01:00,14,R,ugm-3,38,R,ugm-3,59,R,ugm-3
10-01-1997,02:00,14,R,ugm-3,40,R,ugm-3,61,R,ugm-3
10-01-1997,03:00,14,R,ugm-3,48,R,ugm-3,69,R,ugm-3
10-01-1997,04:00,14,R,ugm-3,53,R,ugm-3,74,R,ugm-3
10-01-1997,05:00,20,R,ugm-3,57,R,ugm-3,88,R,ugm-3
10-01-1997,06:00,21,R,ugm-3,55,R,ugm-3,88,R,ugm-3
10-01-1997,07:00,29,R,ugm-3,52,R,ugm-3,96,R,ugm-3
10-01-1997,08:00,28,R,ugm-3,53,R,ugm-3,96,R,ugm-3
10-01-1997,09:00,48,R,ugm-3,57,R,ugm-3,130,R,ugm-3
10-01-1997,10:00,53,R,ugm-3,59,R,ugm-3,139,R,ugm-3
10-01-1997,11:00,33,R,ugm-3,46,R,ugm-3,96,R,ugm-3
10-01-1997,12:00,35,R,ugm-3,44,R,ugm-3,97,R,ugm-3
10-01-1997,13:00,33,R,ugm-3,44,R,ugm-3,94,R,ugm-3
10-01-1997,14:00,41,R,ugm-3,55,R,ugm-3,118,R,ugm-3
10-01-1997,15:00,51,R,ugm-3,59,R,ugm-3,138,R,ugm-3
10-01-1997,16:00,54,R,ugm-3,61,R,ugm-3,143,R,ugm-3
10-01-1997,17:00,64,R,ugm-3,59,R,ugm-3,157,R,ugm-3
10-01-1997,18:00,66,R,ugm-3,59,R,ugm-3,160,R,ugm-3
10-01-1997,19:00,76,R,ugm-3,57,R,ugm-3,174,R,ugm-3
10-01-1997,20:00,80,R,ugm-3,57,R,ugm-3,180,R,ugm-3
10-01-1997,21:00,76,R,ugm-3,53,R,ugm-3,170,R,ugm-3
10-01-1997,22:00,73,R,ugm-3,57,R,ugm-3,168,R,ugm-3
10-01-1997,23:00,69,R,ugm-3,53,R,ugm-3,159,R,ugm-3
10-01-1997,24:00,49,R,ugm-3,50,R,ugm-3,124,R,ugm-3
11-01-1997,01:00,40,R,ugm-3,46,R,ugm-3,107,R,ugm-3
11-01-1997,02:00,45,R,ugm-3,50,R,ugm-3,118,R,ugm-3
11-01-1997,03:00,38,R,ugm-3,46,R,ugm-3,103,R,ugm-3
11-01-1997,04:00,33,R,ugm-3,44,R,ugm-3,94,R,ugm-3
11-01-1997,05:00,25,R,ugm-3,46,R,ugm-3,84,R,ugm-3
11-01-1997,06:00,29,R,ugm-3,40,R,ugm-3,84,R,ugm-3
11-01-1997,07:00,43,R,ugm-3,44,R,ugm-3,109,R,ugm-3
11-01-1997,08:00,56,R,ugm-3,46,R,ugm-3,132,R,ugm-3
11-01-1997,09:00,70,R,ugm-3,53,R,ugm-3,160,R,ugm-3
11-01-1997,10:00,73,R,ugm-3,52,R,ugm-3,162,R,ugm-3
11-01-1997,11:00,76,R,ugm-3,53,R,ugm-3,170,R,ugm-3
11-01-1997,12:00,89,R,ugm-3,55,R,ugm-3,191,R,ugm-3
11-01-1997,13:00,75,R,ugm-3,50,R,ugm-3,164,R,ugm-3
11-01-1997,14:00,78,R,ugm-3,52,R,ugm-3,170,R,ugm-3
11-01-1997,15:00,88,R,ugm-3,53,R,ugm-3,187,R,ugm-3
11-01-1997,16:00,100,R,ugm-3,53,R,ugm-3,206,R,ugm-3
11-01-1997,17:00,100,R,ugm-3,52,R,ugm-3,204,R,ugm-3
11-01-1997,18:00,99,R,ugm-3,52,R,ugm-3,202,R,ugm-3
11-01-1997,19:00,108,R,ugm-3,50,R,ugm-3,214,R,ugm-3
11-01-1997,20:00,98,R,ugm-3,50,R,ugm-3,199,R,ugm-3
11-01-1997,21:00,96,R,ugm-3,48,R,ugm-3,195,R,ugm-3
11-01-1997,22:00,45,R,ugm-3,40,R,ugm-3,109,R,ugm-3
11-01-1997,23:00,46,R,ugm-3,36,R,ugm-3,107,R,ugm-3
11-01-1997,24:00,45,R,ugm-3,34,R,ugm-3,103,R,ugm-3
12-01-1997,01:00,43,R,ugm-3,32,R,ugm-3,97,R,ugm-3
12-01-1997,02:00,35,R,ugm-3,38,R,ugm-3,92,R,ugm-3
12-01-1997,03:00,35,R,ugm-3,38,R,ugm-3,92,R,ugm-3
12-01-1997,04:00,29,R,ugm-3,36,R,ugm-3,80,R,ugm-3
12-01-1997,05:00,20,R,ugm-3,34,R,ugm-3,65,R,ugm-3
12-01-1997,06:00,20,R,ugm-3,32,R,ugm-3,63,R,ugm-3
12-01-1997,07:00,39,R,ugm-3,36,R,ugm-3,96,R,ugm-3
12-01-1997,08:00,33,R,ugm-3,32,R,ugm-3,82,R,ugm-3
12-01-1997,09:00,33,R,ugm-3,34,R,ugm-3,84,R,ugm-3
12-01-1997,10:00,33,R,ugm-3,38,R,ugm-3,88,R,ugm-3
12-01-1997,11:00,39,R,ugm-3,36,R,ugm-3,96,R,ugm-3
12-01-1997,12:00,44,R,ugm-3,42,R,ugm-3,109,R,ugm-3
12-01-1997,13:00,40,R,ugm-3,44,R,ugm-3,105,R,ugm-3
12-01-1997,14:00,35,R,ugm-3,40,R,ugm-3,94,R,ugm-3
12-01-1997,15:00,41,R,ugm-3,44,R,ugm-3,107,R,ugm-3
12-01-1997,16:00,40,R,ugm-3,42,R,ugm-3,103,R,ugm-3
12-01-1997,17:00,41,R,ugm-3,44,R,ugm-3,107,R,ugm-3
12-01-1997,18:00,50,R,ugm-3,48,R,ugm-3,124,R,ugm-3
12-01-1997,19:00,39,R,ugm-3,42,R,ugm-3,101,R,ugm-3
12-01-1997,20:00,43,R,ugm-3,36,R,ugm-3,101,R,ugm-3
12-01-1997,21:00,34,R,ugm-3,34,R,ugm-3,86,R,ugm-3
12-01-1997,22:00,30,R,ugm-3,29,R,ugm-3,74,R,ugm-3
12-01-1997,23:00,28,R,ugm-3,21,R,ugm-3,63,R,ugm-3
12-01-1997,24:00,23,R,ugm-3,17,R,ugm-3,52,R,ugm-3
13-01-1997,01:00,23,R,ugm-3,15,R,ugm-3,50,R,ugm-3
13-01-1997,02:00,23,R,ugm-3,13,R,ugm-3,48,R,ugm-3
13-01-1997,03:00,21,R,ugm-3,10,R,ugm-3,42,R,ugm-3
13-01-1997,04:00,23,R,ugm-3,10,R,ugm-3,44,R,ugm-3
13-01-1997,05:00,31,R,ugm-3,17,R,ugm-3,65,R,ugm-3
13-01-1997,06:00,35,R,ugm-3,25,R,ugm-3,78,R,ugm-3
13-01-1997,07:00,50,R,ugm-3,25,R,ugm-3,101,R,ugm-3
13-01-1997,08:00,65,R,ugm-3,34,R,ugm-3,134,R,ugm-3
13-01-1997,09:00,76,R,ugm-3,40,R,ugm-3,157,R,ugm-3
13-01-1997,10:00,91,R,ugm-3,36,R,ugm-3,176,R,ugm-3
13-01-1997,11:00,91,R,ugm-3,34,R,ugm-3,174,R,ugm-3
13-01-1997,12:00,108,R,ugm-3,40,R,ugm-3,204,R,ugm-3
13-01-1997,13:00,98,R,ugm-3,40,R,ugm-3,189,R,ugm-3
13-01-1997,14:00,104,R,ugm-3,46,R,ugm-3,204,R,ugm-3
13-01-1997,15:00,106,R,ugm-3,52,R,ugm-3,214,R,ugm-3
13-01-1997,16:00,100,R,ugm-3,59,R,ugm-3,212,R,ugm-3
13-01-1997,17:00,180,R,ugm-3,63,R,ugm-3,338,R,ugm-3
13-01-1997,18:00,166,R,ugm-3,61,R,ugm-3,315,R,ugm-3
13-01-1997,19:00,129,R,ugm-3,67,R,ugm-3,264,R,ugm-3
13-01-1997,20:00,209,R,ugm-3,73,R,ugm-3,392,R,ugm-3
13-01-1997,21:00,201,R,ugm-3,69,R,ugm-3,376,R,ugm-3
13-01-1997,22:00,99,R,ugm-3,67,R,ugm-3,218,R,ugm-3
13-01-1997,23:00,90,R,ugm-3,67,R,ugm-3,204,R,ugm-3
13-01-1997,24:00,76,R,ugm-3,69,R,ugm-3,185,R,ugm-3
14-01-1997,01:00,51,R,ugm-3,65,R,ugm-3,143,R,ugm-3
14-01-1997,02:00,55,R,ugm-3,63,R,ugm-3,147,R,ugm-3
14-01-1997,03:00,45,R,ugm-3,57,R,ugm-3,126,R,ugm-3
14-01-1997,04:00,41,R,ugm-3,59,R,ugm-3,122,R,ugm-3
14-01-1997,05:00,33,R,ugm-3,63,R,ugm-3,113,R,ugm-3
14-01-1997,06:00,71,R,ugm-3,67,R,ugm-3,176,R,ugm-3
14-01-1997,07:00,106,R,ugm-3,65,R,ugm-3,227,R,ugm-3
14-01-1997,08:00,144,R,ugm-3,71,R,ugm-3,290,R,ugm-3
14-01-1997,09:00,266,R,ugm-3,78,R,ugm-3,485,R,ugm-3
14-01-1997,10:00,290,R,ugm-3,88,R,ugm-3,531,R,ugm-3
14-01-1997,11:00,118,R,ugm-3,73,R,ugm-3,252,R,ugm-3
14-01-1997,12:00,130,R,ugm-3,78,R,ugm-3,277,R,ugm-3
14-01-1997,13:00,150,R,ugm-3,84,R,ugm-3,313,R,ugm-3
14-01-1997,14:00,94,R,ugm-3,74,R,ugm-3,218,R,ugm-3
14-01-1997,15:00,109,R,ugm-3,84,R,ugm-3,250,R,ugm-3
14-01-1997,16:00,165,R,ugm-3,96,R,ugm-3,348,R,ugm-3
14-01-1997,17:00,248,R,ugm-3,97,R,ugm-3,476,R,ugm-3
14-01-1997,18:00,323,R,ugm-3,99,R,ugm-3,592,R,ugm-3
14-01-1997,19:00,319,R,ugm-3,109,R,ugm-3,596,R,ugm-3
14-01-1997,20:00,353,R,ugm-3,103,R,ugm-3,642,R,ugm-3
14-01-1997,21:00,364,R,ugm-3,105,R,ugm-3,661,R,ugm-3
14-01-1997,22:00,311,R,ugm-3,103,R,ugm-3,579,R,ugm-3
14-01-1997,23:00,316,R,ugm-3,97,R,ugm-3,581,R,ugm-3
14-01-1997,24:00,164,R,ugm-3,99,R,ugm-3,350,R,ugm-3
15-01-1997,01:00,124,R,ugm-3,90,R,ugm-3,279,R,ugm-3
15-01-1997,02:00,278,R,ugm-3,88,R,ugm-3,512,R,ugm-3
15-01-1997,03:00,319,R,ugm-3,94,R,ugm-3,581,R,ugm-3
15-01-1997,04:00,259,R,ugm-3,82,R,ugm-3,478,R,ugm-3
15-01-1997,05:00,280,R,ugm-3,67,R,ugm-3,495,R,ugm-3
15-01-1997,06:00,273,R,ugm-3,65,R,ugm-3,481,R,ugm-3
15-01-1997,07:00,391,R,ugm-3,92,R,ugm-3,690,R,ugm-3
15-01-1997,08:00,609,R,ugm-3,117,R,ugm-3,1047,R,ugm-3
15-01-1997,09:00,696,R,ugm-3,122,R,ugm-3,1186,R,ugm-3
15-01-1997,10:00,838,R,ugm-3,151,R,ugm-3,1431,R,ugm-3
15-01-1997,11:00,643,R,ugm-3,157,R,ugm-3,1138,R,ugm-3
15-01-1997,12:00,528,R,ugm-3,151,R,ugm-3,957,R,ugm-3
15-01-1997,13:00,165,R,ugm-3,80,R,ugm-3,332,R,ugm-3
15-01-1997,14:00,134,R,ugm-3,59,R,ugm-3,264,R,ugm-3
15-01-1997,15:00,109,R,ugm-3,63,R,ugm-3,229,R,ugm-3
15-01-1997,16:00,115,R,ugm-3,59,R,ugm-3,235,R,ugm-3
15-01-1997,17:00,104,R,ugm-3,57,R,ugm-3,216,R,ugm-3
15-01-1997,18:00,71,R,ugm-3,55,R,ugm-3,164,R,ugm-3
15-01-1997,19:00,73,R,ugm-3,55,R,ugm-3,166,R,ugm-3
15-01-1997,20:00,79,R,ugm-3,53,R,ugm-3,174,R,ugm-3
15-01-1997,21:00,73,R,ugm-3,53,R,ugm-3,164,R,ugm-3
15-01-1997,22:00,56,R,ugm-3,52,R,ugm-3,138,R,ugm-3
15-01-1997,23:00,36,R,ugm-3,44,R,ugm-3,99,R,ugm-3
15-01-1997,24:00,36,R,ugm-3,46,R,ugm-3,101,R,ugm-3
16-01-1997,01:00,29,R,ugm-3,44,R,ugm-3,88,R,ugm-3
16-01-1997,02:00,31,R,ugm-3,50,R,ugm-3,97,R,ugm-3
16-01-1997,03:00,28,R,ugm-3,50,R,ugm-3,92,R,ugm-3
16-01-1997,04:00,31,R,ugm-3,46,R,ugm-3,94,R,ugm-3
16-01-1997,05:00,33,R,ugm-3,50,R,ugm-3,99,R,ugm-3
16-01-1997,06:00,33,R,ugm-3,52,R,ugm-3,101,R,ugm-3
16-01-1997,07:00,50,R,ugm-3,53,R,ugm-3,130,R,ugm-3
16-01-1997,08:00,85,R,ugm-3,53,R,ugm-3,183,R,ugm-3
16-01-1997,09:00,108,R,ugm-3,61,R,ugm-3,225,R,ugm-3
16-01-1997,10:00,126,R,ugm-3,57,R,ugm-3,250,R,ugm-3
16-01-1997,11:00,170,R,ugm-3,67,R,ugm-3,327,R,ugm-3
16-01-1997,12:00,188,R,ugm-3,71,R,ugm-3,357,R,ugm-3
16-01-1997,13:00,186,R,ugm-3,67,R,ugm-3,351,R,ugm-3
16-01-1997,14:00,139,R,ugm-3,69,R,ugm-3,281,R,ugm-3
16-01-1997,15:00,130,R,ugm-3,71,R,ugm-3,269,R,ugm-3
16-01-1997,16:00,148,R,ugm-3,74,R,ugm-3,300,R,ugm-3
16-01-1997,17:00,169,R,ugm-3,76,R,ugm-3,334,R,ugm-3
16-01-1997,18:00,258,R,ugm-3,86,R,ugm-3,479,R,ugm-3
16-01-1997,19:00,279,R,ugm-3,90,R,ugm-3,516,R,ugm-3
16-01-1997,20:00,298,R,ugm-3,96,R,ugm-3,550,R,ugm-3
16-01-1997,21:00,315,R,ugm-3,101,R,ugm-3,583,R,ugm-3
16-01-1997,22:00,163,R,ugm-3,90,R,ugm-3,338,R,ugm-3
16-01-1997,23:00,108,R,ugm-3,82,R,ugm-3,246,R,ugm-3
16-01-1997,24:00,96,R,ugm-3,78,R,ugm-3,225,R,ugm-3
17-01-1997,01:00,66,R,ugm-3,71,R,ugm-3,172,R,ugm-3
17-01-1997,02:00,55,R,ugm-3,65,R,ugm-3,149,R,ugm-3
17-01-1997,03:00,49,R,ugm-3,59,R,ugm-3,134,R,ugm-3
17-01-1997,04:00,36,R,ugm-3,52,R,ugm-3,107,R,ugm-3
17-01-1997,05:00,38,R,ugm-3,48,R,ugm-3,105,R,ugm-3
17-01-1997,06:00,49,R,ugm-3,48,R,ugm-3,122,R,ugm-3
17-01-1997,07:00,75,R,ugm-3,50,R,ugm-3,164,R,ugm-3
17-01-1997,08:00,93,R,ugm-3,52,R,ugm-3,193,R,ugm-3
17-01-1997,09:00,84,R,ugm-3,48,R,ugm-3,176,R,ugm-3
17-01-1997,10:00,106,R,ugm-3,52,R,ugm-3,214,R,ugm-3
17-01-1997,11:00,68,R,ugm-3,52,R,ugm-3,155,R,ugm-3
17-01-1997,12:00,71,R,ugm-3,46,R,ugm-3,155,R,ugm-3
17-01-1997,13:00,79,R,ugm-3,48,R,ugm-3,168,R,ugm-3
17-01-1997,14:00,83,R,ugm-3,52,R,ugm-3,178,R,ugm-3
17-01-1997,15:00,96,R,ugm-3,61,R,ugm-3,208,R,ugm-3
17-01-1997,16:00,89,R,ugm-3,63,R,ugm-3,199,R,ugm-3
17-01-1997,17:00,90,R,ugm-3,76,R,ugm-3,214,R,ugm-3
17-01-1997,18:00,76,R,ugm-3,74,R,ugm-3,191,R,ugm-3
17-01-1997,19:00,71,R,ugm-3,74,R,ugm-3,183,R,ugm-3
17-01-1997,20:00,83,R,ugm-3,61,R,ugm-3,187,R,ugm-3
17-01-1997,21:00,138,R,ugm-3,67,R,ugm-3,277,R,ugm-3
17-01-1997,22:00,108,R,ugm-3,67,R,ugm-3,231,R,ugm-3
17-01-1997,23:00,141,R,ugm-3,67,R,ugm-3,283,R,ugm-3
17-01-1997,24:00,41,R,ugm-3,59,R,ugm-3,122,R,ugm-3
18-01-1997,01:00,46,R,ugm-3,57,R,ugm-3,128,R,ugm-3
18-01-1997,02:00,44,R,ugm-3,46,R,ugm-3,113,R,ugm-3
18-01-1997,03:00,40,R,ugm-3,50,R,ugm-3,111,R,ugm-3
18-01-1997,04:00,24,R,ugm-3,36,R,ugm-3,73,R,ugm-3
18-01-1997,05:00,28,R,ugm-3,38,R,ugm-3,80,R,ugm-3
18-01-1997,06:00,26,R,ugm-3,38,R,ugm-3,78,R,ugm-3
18-01-1997,07:00,30,R,ugm-3,40,R,ugm-3,86,R,ugm-3
18-01-1997,08:00,34,R,ugm-3,40,R,ugm-3,92,R,ugm-3
18-01-1997,09:00,31,R,ugm-3,50,R,ugm-3,97,R,ugm-3
18-01-1997,10:00,29,R,ugm-3,46,R,ugm-3,90,R,ugm-3
18-01-1997,11:00,30,R,ugm-3,44,R,ugm-3,90,R,ugm-3
18-01-1997,12:00,33,R,ugm-3,48,R,ugm-3,97,R,ugm-3
18-01-1997,13:00,30,R,ugm-3,48,R,ugm-3,94,R,ugm-3
18-01-1997,14:00,25,R,ugm-3,38,R,ugm-3,76,R,ugm-3
18-01-1997,15:00,20,R,ugm-3,36,R,ugm-3,67,R,ugm-3
18-01-1997,16:00,21,R,ugm-3,42,R,ugm-3,74,R,ugm-3
18-01-1997,17:00,21,R,ugm-3,50,R,ugm-3,82,R,ugm-3
18-01-1997,18:00,20,R,ugm-3,44,R,ugm-3,74,R,ugm-3
18-01-1997,19:00,16,R,ugm-3,36,R,ugm-3,61,R,ugm-3
18-01-1997,20:00,20,R,ugm-3,38,R,ugm-3,69,R,ugm-3
18-01-1997,21:00,23,R,ugm-3,44,R,ugm-3,78,R,ugm-3
18-01-1997,22:00,16,R,ugm-3,36,R,ugm-3,61,R,ugm-3
18-01-1997,23:00,15,R,ugm-3,23,R,ugm-3,46,R,ugm-3
18-01-1997,24:00,16,R,ugm-3,25,R,ugm-3,50,R,ugm-3
19-01-1997,01:00,15,R,ugm-3,31,R,ugm-3,53,R,ugm-3
19-01-1997,02:00,18,R,ugm-3,32,R,ugm-3,59,R,ugm-3
19-01-1997,03:00,18,R,ugm-3,27,R,ugm-3,53,R,ugm-3
19-01-1997,04:00,16,R,ugm-3,23,R,ugm-3,48,R,ugm-3
19-01-1997,05:00,14,R,ugm-3,13,R,ugm-3,34,R,ugm-3
19-01-1997,06:00,15,R,ugm-3,11,R,ugm-3,34,R,ugm-3
19-01-1997,07:00,18,R,ugm-3,10,R,ugm-3,36,R,ugm-3
19-01-1997,08:00,18,R,ugm-3,11,R,ugm-3,38,R,ugm-3
19-01-1997,09:00,20,R,ugm-3,13,R,ugm-3,44,R,ugm-3
19-01-1997,10:00,23,R,ugm-3,21,R,ugm-3,55,R,ugm-3
19-01-1997,11:00,25,R,ugm-3,27,R,ugm-3,65,R,ugm-3
19-01-1997,12:00,24,R,ugm-3,29,R,ugm-3,65,R,ugm-3
19-01-1997,13:00,26,R,ugm-3,29,R,ugm-3,69,R,ugm-3
19-01-1997,14:00,21,R,ugm-3,29,R,ugm-3,61,R,ugm-3
19-01-1997,15:00,21,R,ugm-3,38,R,ugm-3,71,R,ugm-3
19-01-1997,16:00,21,R,ugm-3,36,R,ugm-3,69,R,ugm-3
19-01-1997,17:00,21,R,ugm-3,38,R,ugm-3,71,R,ugm-3
19-01-1997,18:00,21,R,ugm-3,44,R,ugm-3,76,R,ugm-3
19-01-1997,19:00,21,R,ugm-3,44,R,ugm-3,76,R,ugm-3
19-01-1997,20:00,20,R,ugm-3,34,R,ugm-3,65,R,ugm-3
19-01-1997,21:00,19,R,ugm-3,29,R,ugm-3,57,R,ugm-3
19-01-1997,22:00,16,R,ugm-3,27,R,ugm-3,52,R,ugm-3
19-01-1997,23:00,14,R,ugm-3,31,R,ugm-3,52,R,ugm-3
19-01-1997,24:00,14,R,ugm-3,31,R,ugm-3,52,R,ugm-3
20-01-1997,01:00,14,R,ugm-3,29,R,ugm-3,50,R,ugm-3
20-01-1997,02:00,19,R,ugm-3,36,R,ugm-3,65,R,ugm-3
20-01-1997,03:00,31,R,ugm-3,48,R,ugm-3,96,R,ugm-3
20-01-1997,04:00,33,R,ugm-3,32,R,ugm-3,82,R,ugm-3
20-01-1997,05:00,14,R,ugm-3,19,R,ugm-3,40,R,ugm-3
20-01-1997,06:00,106,R,ugm-3,53,R,ugm-3,216,R,ugm-3
20-01-1997,07:00,229,R,ugm-3,71,R,ugm-3,420,R,ugm-3
20-01-1997,08:00,91,R,ugm-3,65,R,ugm-3,204,R,ugm-3
20-01-1997,09:00,151,R,ugm-3,67,R,ugm-3,298,R,ugm-3
20-01-1997,10:00,160,R,ugm-3,67,R,ugm-3,311,R,ugm-3
20-01-1997,11:00,65,R,ugm-3,59,R,ugm-3,159,R,ugm-3
20-01-1997,12:00,69,R,ugm-3,59,R,ugm-3,164,R,ugm-3
20-01-1997,13:00,71,R,ugm-3,61,R,ugm-3,170,R,ugm-3
20-01-1997,14:00,124,R,ugm-3,67,R,ugm-3,256,R,ugm-3